Weather History for Moorhead, MN

Change the Weather History Date:

Sunday, April 6, 2014

  Actual Average (KFAR) Record (KFAR)
Temperature  
Mean Temperature 44 °F 39 °F  
Max Temperature 57 °F 50 °F 82 °F (1991)
Min Temperature 30 °F 29 °F 0 °F (1979)
Degree Days  
Heating Degree Days 22 26  
Month to date heating degree days 164  
Since 1 July heating degree days 7994  
Cooling Degree Days 0 0  
Month to date cooling degree days 0  
Year to date cooling degree days 0  
Moisture  
Dew Point 39 °F    
Average Humidity 86    
Maximum Humidity 100    
Minimum Humidity 36    
Precipitation  
Precipitation 0.00 in 0.04 in 1.55 in (1885)
Month to date precipitation 0.24  
Year to date precipitation 2.85  
Snow  
Snow 0.00 in 0.10 in 7.00 in (1997)
Month to date snowfall 0.9  
Since 1 July snowfall 48.0  
Snow Depth -    
Sea Level Pressure  
Sea Level Pressure 29.82 in    
Wind  
Wind Speed 5 mph (SSW)    
Max Wind Speed 16 mph    
Max Gust Speed 36 mph    
Visibility 7 miles    
Events      
T = Trace of Precipitation, MM = Missing Value Source: NWS Daily Summary

Daily Weather History Graph

Daily Weather History Graph

Search for Another Location

Airport:

Trip Planner

Search our weather history database for the weather conditions in past years. The results will help you decide how hot, cold, wet, or windy it might be!

Date:

Astronomy

Apr. 06, 2014 Rise Set
Actual Time 6:56 AM CDT 8:02 PM CDT
Civil Twilight 6:25 AM CDT 8:33 PM CDT
Nautical Twilight 5:47 AM CDT 9:11 PM CDT
Astronomical Twilight 5:08 AM CDT 9:51 PM CDT
Moon 11:46 AM CDT (4/6) 2:11 AM CDT (4/6)
Length of Visible Light 14h 08m
Length of Day
13h 06m
Waxing Crescent, 44% of the Moon is Illuminated
Apr 6
Waxing Crescent
Apr 7
First Quarter
Apr 15
Full
Apr 22
Last Quarter
Apr 29
New

Hourly Weather History & Observations

Time (CDT) Temp. Windchill Dew Point Humidity Pressure Visibility Wind Dir Wind Speed Gust Speed Precip Events Conditions
12:01 AM 39.2 °F 34.2 °F 39.2 °F 100% 29.84 in 7.0 mi ESE 6.9 mph - N/A   Clear
12:21 AM 39.2 °F 34.2 °F 39.2 °F 100% 29.83 in 7.0 mi ESE 6.9 mph - N/A   Clear
1:01 AM 35.6 °F 30.7 °F 35.6 °F 100% 29.84 in 5.0 mi NNW 5.8 mph - N/A   Clear
1:21 AM 33.8 °F 28.6 °F 33.8 °F 100% 29.84 in 4.0 mi North 5.8 mph - N/A   Clear
1:41 AM 33.8 °F 30.8 °F 33.8 °F 100% 29.84 in 5.0 mi NNE 3.5 mph - N/A   Clear
2:01 AM 33.8 °F 30.8 °F 33.8 °F 100% 29.84 in 5.0 mi NNE 3.5 mph - N/A   Clear
2:21 AM 33.8 °F 29.6 °F 33.8 °F 100% 29.83 in 5.0 mi NE 4.6 mph - N/A   Clear
2:41 AM 33.8 °F 29.6 °F 33.8 °F 100% 29.83 in 4.0 mi NE 4.6 mph - N/A   Clear
3:01 AM 33.8 °F 29.6 °F 33.8 °F 100% 29.82 in 4.0 mi ENE 4.6 mph - N/A   Clear
3:21 AM 33.8 °F 29.6 °F 33.8 °F 100% 29.82 in 4.0 mi ENE 4.6 mph - N/A   Clear
3:41 AM 32.0 °F - 32.0 °F 100% 29.83 in 4.0 mi NE 2.3 mph - N/A   Clear
4:21 AM 32.0 °F 26.4 °F 32.0 °F 100% 29.83 in 3.0 mi NW 5.8 mph - N/A   Clear
4:41 AM 30.2 °F 25.4 °F 30.2 °F 100% 29.83 in 4.0 mi NNW 4.6 mph - N/A   Clear
5:01 AM 30.2 °F 25.4 °F 30.2 °F 100% 29.83 in 4.0 mi NNW 4.6 mph - N/A   Clear
5:41 AM 30.2 °F 26.7 °F 30.2 °F 100% 29.83 in 4.0 mi North 3.5 mph - N/A   Clear
6:01 AM 30.2 °F - 30.2 °F 100% 29.83 in 4.0 mi North 2.3 mph - N/A   Clear
6:21 AM 30.2 °F - 30.2 °F 100% 29.84 in 3.0 mi NW 1.2 mph - N/A   Clear
6:41 AM 30.2 °F - 30.2 °F 100% 29.84 in 3.0 mi Calm Calm - N/A   Clear
7:01 AM 30.2 °F 26.7 °F 30.2 °F 100% 29.84 in 2.5 mi NNW 3.5 mph - N/A   Clear
7:21 AM 30.2 °F - 30.2 °F 100% 29.85 in 2.0 mi NNW 2.3 mph - N/A   Clear
7:41 AM 30.2 °F - 30.2 °F 100% 29.85 in 2.0 mi NW 1.2 mph - N/A   Clear
8:01 AM 32.0 °F - 32.0 °F 100% 29.85 in 2.5 mi NW 1.2 mph - N/A   Clear
8:21 AM 32.0 °F 28.7 °F 32.0 °F 100% 29.86 in 2.5 mi West 3.5 mph - N/A   Clear
8:41 AM 33.8 °F 30.8 °F 33.8 °F 100% 29.86 in 3.0 mi WNW 3.5 mph - N/A   Clear
9:01 AM 35.6 °F 32.8 °F 35.6 °F 100% 29.85 in 4.0 mi NNW 3.5 mph - N/A   Clear
9:21 AM 37.4 °F - 37.4 °F 100% 29.85 in 4.0 mi North 2.3 mph - N/A   Clear
9:41 AM 37.4 °F - 37.4 °F 100% 29.85 in 4.0 mi WNW 1.2 mph - N/A   Clear
10:01 AM 39.2 °F 37.0 °F 39.2 °F 100% 29.86 in 5.0 mi WSW 3.5 mph - N/A   Clear
10:21 AM 41.0 °F 39.0 °F 39.2 °F 93% 29.85 in 5.0 mi SSW 3.5 mph - N/A   Clear
10:41 AM 42.8 °F - 41.0 °F 93% 29.85 in 7.0 mi SW 2.3 mph - N/A   Clear
11:01 AM 42.8 °F 41.1 °F 42.8 °F 100% 29.85 in 5.0 mi WSW 3.5 mph - N/A   Clear
11:21 AM 46.4 °F - 44.6 °F 93% 29.85 in 7.0 mi WSW 2.3 mph - N/A   Clear
11:41 AM 46.4 °F - 42.8 °F 87% 29.84 in 7.0 mi Calm Calm - N/A   Clear
12:01 PM 48.2 °F - 44.6 °F 87% 29.84 in 7.0 mi WSW 2.3 mph - N/A   Clear
12:21 PM 48.2 °F - 44.6 °F 87% 29.83 in 7.0 mi SW 1.2 mph - N/A   Clear
12:41 PM 50.0 °F - 44.6 °F 82% 29.83 in 7.0 mi SSE 4.6 mph - N/A   Clear
1:01 PM 51.8 °F - 44.6 °F 76% 29.82 in 10.0 mi South 2.3 mph - N/A   Clear
1:21 PM 51.8 °F - 44.6 °F 76% 29.82 in 7.0 mi SE 3.5 mph - N/A   Clear
1:41 PM 51.8 °F - 46.4 °F 82% 29.81 in 10.0 mi SSW 4.6 mph - N/A   Clear
2:01 PM 53.6 °F - 44.6 °F 72% 29.81 in 10.0 mi SSE 2.3 mph - N/A   Clear
2:21 PM 53.6 °F - 44.6 °F 72% 29.81 in 10.0 mi SSW 5.8 mph - N/A   Clear
2:41 PM 53.6 °F - 46.4 °F 77% 29.80 in 10.0 mi South 3.5 mph - N/A   Clear
3:01 PM 55.4 °F - 42.8 °F 63% 29.80 in 10.0 mi SW 1.2 mph - N/A   Clear
3:21 PM 55.4 °F - 42.8 °F 63% 29.79 in 10.0 mi SW 6.9 mph - N/A   Clear
3:41 PM 57.2 °F - 41.0 °F 55% 29.78 in 10.0 mi SSW 9.2 mph - N/A   Clear
4:01 PM 57.2 °F - 42.8 °F 59% 29.78 in 10.0 mi SW 8.1 mph - N/A   Clear
4:21 PM 57.2 °F - 42.8 °F 59% 29.78 in 10.0 mi SSW 6.9 mph - N/A   Clear
4:41 PM 57.2 °F - 42.8 °F 59% 29.77 in 10.0 mi SSE 2.3 mph - N/A   Clear
5:01 PM 57.2 °F - 41.0 °F 55% 29.77 in 10.0 mi South 5.8 mph - N/A   Clear
5:21 PM 57.2 °F - 41.0 °F 55% 29.76 in 10.0 mi South 3.5 mph - N/A   Clear
5:41 PM 57.2 °F - 41.0 °F 55% 29.76 in 10.0 mi SE 2.3 mph - N/A   Clear
6:01 PM 57.2 °F - 39.2 °F 51% 29.76 in 10.0 mi SSW 3.5 mph - N/A   Clear
6:55 PM 55.4 °F - 42.8 °F 63% 29.76 in 10.0 mi SSE 4.6 mph - N/A   Clear
7:18 PM 55.4 °F - 42.8 °F 63% 29.76 in 10.0 mi South 16.1 mph 28.8 mph N/A   Mostly Cloudy
7:26 PM 55.4 °F - 28.4 °F 36% 29.77 in 7.0 mi South 16.1 mph 35.7 mph N/A   Overcast
7:41 PM 51.8 °F - 37.4 °F 58% 29.79 in 7.0 mi SSE 11.5 mph 23.0 mph N/A   Overcast
8:01 PM 50.0 °F - 42.8 °F 76% 29.79 in 10.0 mi South 10.4 mph - N/A   Overcast
8:21 PM 48.2 °F - 42.8 °F 82% 29.78 in 7.0 mi SSE 11.5 mph - N/A   Overcast
8:41 PM 48.2 °F - 42.8 °F 82% 29.78 in 10.0 mi SSE 10.4 mph - N/A   Mostly Cloudy
9:01 PM 48.2 °F - 42.8 °F 82% 29.80 in 10.0 mi SSW 6.9 mph - N/A   Overcast
9:21 PM 46.4 °F 42.4 °F 44.6 °F 93% 29.83 in 7.0 mi SW 8.1 mph - N/A   Overcast
9:41 PM 46.4 °F 44.3 °F 44.6 °F 93% 29.82 in 10.0 mi SSW 4.6 mph - N/A   Overcast
10:01 PM 46.4 °F 44.3 °F 44.6 °F 93% 29.82 in 10.0 mi SSE 4.6 mph - N/A   Overcast
10:21 PM 44.6 °F 41.4 °F 44.6 °F 100% 29.82 in 10.0 mi ESE 5.8 mph - N/A   Overcast
10:41 PM 44.6 °F 41.4 °F 44.6 °F 100% 29.82 in 10.0 mi ESE 5.8 mph - N/A   Overcast
11:01 PM 44.6 °F - 44.6 °F 100% 29.82 in 10.0 mi Calm Calm - N/A   Mostly Cloudy
11:41 PM 44.6 °F - 44.6 °F 100% 29.81 in 10.0 mi SE 2.3 mph - N/A   Mostly Cloudy